| time (UTC) | temp F | wind direction | speed knots | gust knots | rain 1hr in | rain 24hr in | rain mn in | humidity % | barometer mb |
| 20260502210522 | 53 | 324 | 0.0 | 0.9 | 0.11 | 0.46 | 0.46 | 95 | |
| 20260502205523 | 53 | 309 | 1.7 | 5.2 | 0.16 | 0.46 | 0.46 | 94 | |
| 20260502204522 | 53 | 299 | 0.0 | 1.7 | 0.16 | 0.46 | 0.46 | 94 | |
| 20260502203522 | 54 | 225 | 0.9 | 1.7 | 0.14 | 0.44 | 0.44 | 94 | |
| 20260502202523 | 54 | 282 | 1.7 | 3.5 | 0.09 | 0.39 | 0.39 | 94 | |
| 20260502201522 | 54 | 306 | 0.0 | 1.7 | 0.06 | 0.36 | 0.36 | 94 | |
| 20260502200522 | 54 | 318 | 0.9 | 2.6 | 0.05 | 0.35 | 0.35 | 94 | |
| 20260502195523 | 54 | 0.0 | 0.0 | 0.00 | 0.30 | 0.30 | 94 | ||
| 20260502194523 | 54 | 318 | 0.0 | 1.7 | 0.00 | 0.30 | 0.30 | 94 | |
| 20260502193523 | 55 | 318 | 0.0 | 1.7 | 0.00 | 0.30 | 0.30 | 94 | |
| 20260502192522 | 54 | 0.0 | 0.0 | 0.00 | 0.30 | 0.30 | 93 | ||
| 20260502191523 | 54 | 0.0 | 0.0 | 0.00 | 0.30 | 0.30 | 93 | ||
| 20260502190522 | 54 | 318 | 0.0 | 0.9 | 0.00 | 0.30 | 0.30 | 93 | |
| 20260502185523 | 54 | 0.0 | 0.0 | 0.00 | 0.30 | 0.30 | 93 | ||
| 20260502184523 | 54 | 318 | 0.0 | 0.9 | 0.00 | 0.30 | 0.30 | 93 | |
| 20260502183523 | 54 | 0.0 | 0.0 | 0.02 | 0.30 | 0.30 | 93 | ||
| 20260502182523 | 54 | 318 | 0.0 | 0.9 | 0.03 | 0.30 | 0.30 | 93 | |
| 20260502181523 | 54 | 318 | 0.0 | 1.7 | 0.05 | 0.30 | 0.30 | 93 | |
| 20260502180523 | 54 | 0.0 | 0.0 | 0.06 | 0.30 | 0.30 | 93 | ||
| 20260502163523 | 58 | 306 | 0.0 | 1.7 | 0.13 | 0.13 | 0.13 | 88 | |
| 20260502162523 | 59 | 306 | 0.0 | 1.7 | 0.06 | 0.06 | 0.06 | 85 | |
| 20260502161523 | 60 | 0.0 | 0.0 | 0.03 | 0.03 | 0.03 | 82 | ||
| 20260502160523 | 62 | 0.0 | 0.0 | 0.02 | 0.02 | 0.02 | 74 | ||
| 20260502151523 | 64 | 321 | 1.7 | 5.2 | 0.00 | 0.00 | 0.00 | 61 | |
| 20260502150523 | 65 | 320 | 1.7 | 3.5 | 0.00 | 0.00 | 0.00 | 60 | |
| 20260502130523 | 66 | 31 | 0.9 | 2.6 | 0.00 | 0.00 | 0.00 | 54 | |
| 20260502123523 | 65 | 306 | 1.7 | 3.5 | 0.00 | 0.00 | 0.00 | 55 | |
| 20260502122523 | 65 | 122 | 1.7 | 3.5 | 0.00 | 0.00 | 0.00 | 56 | |
| 20260502121523 | 66 | 295 | 0.9 | 3.5 | 0.00 | 0.00 | 0.00 | 54 | |
| 20260502120523 | 66 | 319 | 0.9 | 2.6 | 0.00 | 0.00 | 0.00 | 54 | |
| 20260502115523 | 64 | 315 | 0.9 | 2.6 | 0.00 | 0.00 | 0.00 | 59 | |
| 20260502114523 | 64 | 314 | 1.7 | 3.5 | 0.00 | 0.00 | 0.00 | 59 | |
| 20260502113523 | 64 | 268 | 0.9 | 2.6 | 0.00 | 0.00 | 0.00 | 57 | |
| 20260502112524 | 64 | 346 | 0.9 | 3.5 | 0.00 | 0.00 | 0.00 | 58 | |
| 20260502111523 | 63 | 293 | 0.9 | 2.6 | 0.00 | 0.00 | 0.00 | 57 | |
| 20260502110523 | 64 | 264 | 0.9 | 2.6 | 0.00 | 0.00 | 0.00 | 58 | |
| 20260502105523 | 62 | 132 | 0.0 | 1.7 | 0.00 | 0.00 | 0.00 | 60 | |
| 20260502104523 | 63 | 258 | 0.0 | 1.7 | 0.00 | 0.00 | 0.00 | 58 | |
| 20260502103523 | 63 | 337 | 0.9 | 1.7 | 0.00 | 0.00 | 0.00 | 60 | |
| 20260502102523 | 62 | 321 | 0.9 | 2.6 | 0.00 | 0.00 | 0.00 | 62 | |
| 20260502101523 | 63 | 256 | 0.9 | 2.6 | 0.00 | 0.00 | 0.00 | 60 | |
| 20260502100523 | 63 | 252 | 0.0 | 1.7 | 0.00 | 0.00 | 0.00 | 59 | |
| 20260502091523 | 59 | 354 | 0.9 | 1.7 | 0.00 | 0.00 | 0.00 | 67 | |
| 20260502090523 | 59 | 343 | 0.0 | 1.7 | 0.00 | 0.00 | 0.00 | 67 | |
| 20260502071523 | 54 | 0.0 | 0.0 | 0.00 | 0.00 | 0.00 | 83 | ||
| 20260502070523 | 55 | 0.0 | 0.0 | 0.00 | 0.00 | 0.00 | 82 | ||
| 20260502065523 | 52 | 0.0 | 0.0 | 0.00 | 0.00 | 0.00 | 87 | ||
| 20260502064523 | 49 | 0.0 | 0.0 | 0.00 | 0.00 | 0.00 | 94 | ||
| 20260502063523 | 49 | 0.0 | 0.0 | 0.00 | 0.00 | 0.00 | 94 | ||
| 20260502062523 | 48 | 0.0 | 0.0 | 0.00 | 0.00 | 0.00 | 94 | ||
| 20260502061523 | 47 | 0.0 | 0.0 | 0.00 | 0.00 | 0.00 | 94 | ||
| 20260502060523 | 46 | 0.0 | 0.0 | 0.00 | 0.00 | 0.00 | 95 | ||
| 20260502055523 | 45 | 0.0 | 0.0 | 0.00 | 0.00 | 0.00 | 95 | ||
| 20260502054523 | 44 | 0.0 | 0.0 | 0.00 | 0.00 | 0.00 | 95 | ||
| 20260502053523 | 43 | 0.0 | 0.0 | 0.00 | 0.00 | 0.00 | 95 | ||
| 20260502052524 | 43 | 0.0 | 0.0 | 0.00 | 0.00 | 0.00 | 94 | ||
| 20260502051523 | 42 | 0.0 | 0.0 | 0.00 | 0.00 | 0.00 | 94 | ||
| 20260502050523 | 42 | 0.0 | 0.0 | 0.00 | 0.00 | 0.00 | 94 | ||
| 20260502045523 | 42 | 0.0 | 0.0 | 0.00 | 0.00 | 0.00 | 94 | ||
| 20260502044523 | 42 | 0.0 | 0.0 | 0.00 | 0.00 | 0.00 | 94 | ||
| 20260502043523 | 42 | 0.0 | 0.0 | 0.00 | 0.00 | 0.00 | 94 | ||
| 20260502042523 | 42 | 0.0 | 0.0 | 0.00 | 0.00 | 0.00 | 94 | ||
| 20260502041523 | 42 | 0.0 | 0.0 | 0.00 | 0.00 | 0.00 | 94 | ||
| 20260502040523 | 42 | 0.0 | 0.0 | 0.00 | 0.00 | 0.00 | 94 | ||
| 20260502035523 | 42 | 0.0 | 0.0 | 0.00 | 0.00 | 0.00 | 94 | ||
| 20260502034523 | 42 | 0.0 | 0.0 | 0.00 | 0.00 | 0.00 | 94 | ||
| 20260502033523 | 42 | 0.0 | 0.0 | 0.00 | 0.00 | 0.00 | 94 | ||
| 20260502032524 | 43 | 0.0 | 0.0 | 0.00 | 0.00 | 0.00 | 94 | ||
| 20260502031523 | 43 | 0.0 | 0.0 | 0.00 | 0.00 | 0.00 | 94 | ||
| 20260502030523 | 43 | 0.0 | 0.0 | 0.00 | 0.00 | 0.00 | 94 | ||
| 20260502025523 | 43 | 0.0 | 0.0 | 0.00 | 0.00 | 0.00 | 94 | ||
| 20260502024523 | 44 | 0.0 | 0.0 | 0.00 | 0.00 | 0.00 | 94 | ||
| 20260502023523 | 44 | 0.0 | 0.0 | 0.00 | 0.00 | 0.00 | 93 | ||
| 20260502022523 | 44 | 0.0 | 0.0 | 0.00 | 0.00 | 0.00 | 93 | ||
| 20260502021523 | 44 | 0.0 | 0.0 | 0.00 | 0.00 | 0.00 | 93 | ||
| 20260502020523 | 44 | 0.0 | 0.0 | 0.00 | 0.00 | 0.00 | 93 | ||
| 20260502015523 | 45 | 0.0 | 0.0 | 0.00 | 0.00 | 0.00 | 93 | ||
| 20260502014524 | 45 | 0.0 | 0.0 | 0.00 | 0.00 | 0.00 | 93 | ||
| 20260502013523 | 45 | 0.0 | 0.0 | 0.00 | 0.00 | 0.00 | 93 | ||
| 20260502012524 | 46 | 0.0 | 0.0 | 0.00 | 0.00 | 0.00 | 93 | ||
| 20260502011523 | 46 | 0.0 | 0.0 | 0.00 | 0.00 | 0.00 | 93 | ||
| 20260502010523 | 46 | 0.0 | 0.0 | 0.00 | 0.00 | 0.00 | 92 | ||
| 20260502005523 | 46 | 0.0 | 0.0 | 0.00 | 0.00 | 0.00 | 92 | ||
| 20260502004523 | 46 | 0.0 | 0.0 | 0.00 | 0.00 | 0.00 | 92 | ||
| 20260502003524 | 46 | 0.0 | 0.0 | 0.00 | 0.00 | 0.00 | 92 | ||
| 20260502002523 | 47 | 0.0 | 0.0 | 0.00 | 0.00 | 0.00 | 91 | ||
| 20260502001524 | 47 | 0.0 | 0.0 | 0.00 | 0.00 | 0.00 | 91 | ||
| 20260502000524 | 47 | 0.0 | 0.0 | 0.00 | 0.00 | 0.00 | 91 | ||
| 20260501235524 | 48 | 276 | 0.0 | 0.9 | 0.00 | 0.00 | 0.00 | 91 | |
| 20260501234524 | 48 | 0.0 | 0.0 | 0.00 | 0.00 | 0.00 | 91 | ||
| 20260501233524 | 47 | 0.0 | 0.0 | 0.00 | 0.00 | 0.00 | 91 | ||
| 20260501232524 | 47 | 0.0 | 0.0 | 0.00 | 0.00 | 0.00 | 91 | ||
| 20260501231524 | 48 | 0.0 | 0.0 | 0.00 | 0.00 | 0.00 | 91 | ||
| 20260501230524 | 48 | 0.0 | 0.0 | 0.00 | 0.00 | 0.00 | 90 | ||
| 20260501225524 | 49 | 0.0 | 0.0 | 0.00 | 0.00 | 0.00 | 90 | ||
| 20260501224524 | 49 | 0.0 | 0.0 | 0.00 | 0.00 | 0.00 | 90 | ||
| 20260501223524 | 49 | 0.0 | 0.0 | 0.00 | 0.00 | 0.00 | 90 | ||
| 20260501222524 | 49 | 0.0 | 0.0 | 0.00 | 0.00 | 0.00 | 90 | ||
| 20260501221524 | 50 | 0.0 | 0.0 | 0.00 | 0.00 | 0.00 | 90 | ||
| 20260501220524 | 50 | 0.0 | 0.0 | 0.00 | 0.00 | 0.00 | 90 | ||
| 20260501215524 | 50 | 0.0 | 0.0 | 0.00 | 0.00 | 0.00 | 90 | ||
| 20260501214524 | 50 | 0.0 | 0.0 | 0.00 | 0.00 | 0.00 | 90 | ||
| 20260501213524 | 51 | 0.0 | 0.0 | 0.00 | 0.00 | 0.00 | 90 | ||
| 20260501212524 | 52 | 0.0 | 0.0 | 0.00 | 0.00 | 0.00 | 90 | ||
| 20260501211524 | 52 | 0.0 | 0.0 | 0.00 | 0.00 | 0.00 | 90 |